EHI
0 0 0 0 0 0 0 0 0 0 0 0 0 0 0 0 0 0 0 0 0 0 0 0 0 0 0 0 0 0 0 0 0 0 0 0 0 0 0 0 0 0 0 0
0 0 0 0 0 0 0 0 0 0 0 0 0 0 0 0 0 0 0 0 0 0 0 0 0 0 0 0 0 0 0 0 0 0 0 0 0 0 0 0 0 0 0 0
0 0 0 0 0 0 0 0 0 0 0 0 0 0 0 0 0 0 0 0 0 0 0 0 0 0 0 0 0 0 0 0 0 0 0 0 0 0 0 0 0 0 0 0
0 0 0 0 0 0 0 0 0 0 0 0 0 0 0 0 0 0 0 0 0 0 0 0 0 0 0 0 0 0 0 0 0 0 0 0 0 0 0 0 0 0 0 0
0 0 0 0 0 0 0 0 0 0 0 0 0 0 0 0 0 0 0 0 0 0 0 0 0 0 0 0 0 0 0 0 0 0 0 0 0 0 0 0 0 0 0 0
0 0 0 0 0 0 0 0 0 0 0 0 0 0 0 0 0 0 0 0 0 0 0 0 0 0 0 0 0 0 0 0 0 0 0 0 0 0 0 0 0 0 0 0
0 0 0 0 0 0 0 0 0 0 0 0 0 0 0 0 0 0 0 0 0 0 0 0 0 0 0 0 0 0 0 0 0 0 0 0 0 0 0 0 0 0 0 0
0 0 0 0 0 0 0 0 0 0 0 0 0 0 0 0 0 0 0 0 0 0 0 0 0 0 0 0 0 0 0 0 0 0 0 0 0 0 0 0 0 0 0 0
0 0 0 0 0 0 0 0 0 0 0 0 0 0 0 0 0 0 0 0 0 0 0 0 0 0 0 0 0 0 0 0 0 0 0 0 0 0 0 0 0 0 0 0
0 0 0 0 0 0 0 0 0 0 0 0 0 0 0 0 0 0 0 0 0 0 0 0 0 0 0 0 0 0 0 0 0 0 0 0 0 0 0 0 0 0 0 0
0 0 0 0 0 0 0 0 0 0 0 0 0 0 0 0 0 0 0 0 0 0 0 0 0 0 0 0 0 0 0 0 0 0 0 0 0 0 0 0 0 0 0 0
0 0 0 0 0 0 0 0 0 0 0 0 0 0 0 0 0 0 0 0 0 0 0 0 0 0 0 0 0 0 0 0 0 0 0 0 0 0 0 0 0 0 0 0
0 0 0 0 0 0 0 0 0 0 0 0 0 0 0 0 0 0 0 0 0 0 0 0 0 0 0 0 0 0 0 0 0 0 0 0 0 0 0 0 0 0 0 0
0 0 0 0 0 0 0 0 0 0 0 0 0 0 0 0 0 0 0 0 0 0 0 0 0 0 0 0 0 0 0 0 0 0 0 0 0 0 0 0 0 0 0 0
0 0 0 0 0 0 0 0 0 0 0 0 0 0 0 0 0 0 0 0 0 0 0 0 0 0 0 0 0 0 0 0 0 0 0 0 0 0 0 0 0 0 0 0
0 0 0 0 0 0 0 0 0 0 0 0 0 0 0 0 0 0 0 0 0 0 0 0 0 0 0 0 0 0 0 0 0 0 0 0 0 0 0 0 0 0 0 0
0 0 0 0 0 0 0 0 0 0 0 0 0 0 0 0 0 0 0 0 0 0 0 0 0 0 0 0 0 0 0 0 0 0 0 0 0 0 0 0 0 0 0 0
0 0 0 0 0 0 0 0 0 0 0 0 0 0 0 0 0 0 0 0 0 0 0 0 0 0 0 0 0 0 0 0 0 0 0 0 0 0 0 0 0 0 0 0
0 0 0 0 0 0 0 0 0 0 0 0 0 0 0 0 0 0 0 0 0 0 0 0 0 0 0 0 0 0 0 0 0 0 0 0 0 0 0 0 0 0 0 0
0 0 0 0 0 0 0 0 0 0 0 0 0 0 0 0 0 0 0 0 0 0 0 0 0 0 0 0 0 0 0 0 0 0 0 0 0 0 0 0 0 0 0 0
0 0 0 0 0 0 0 0 0 0 0 0 0 0 0 0 0 0 0 0 0 0 0 0 0 0 0 0 0 0 0 0 0 0 0 0 0 0 0 0 0 0 0 0
0 0 0 0 0 0 0 0 0 0 0 0 0 0 0 0 0 0 0 0 0 0 0 0 0 0 0 0 0 0 0 0 0 0 0 0 0 0 0 0 0 0 0 0
0 0 0 0 0 0 0 0 0 0 0 0 0 0 0 0 0 0 0 0 0 0 0 0 0 0 0 0 0 0 0 0 0 0 0 0 0 0 0 0 0 0 0 0
0 0 0 0 0 0 0 0 0 0 0 0 0 0 0 0 0 0 0 0 0 0 0 0 0 0 0 0 0 0 0 0 0 0 0 0 0 0 0 0 0 0 0 0
0 0 0 0 0 0 0 0 0 0 0 0 0 0 0 0 0 0 0 0 0 0 0 0 0 0 0 0 0 0 0 0 0 0 0 0 0 0 0 0 0 0 0 0
0 0 0 0 0 0 0 0 0 0 0 0 0 0 0 0 0 0 0 0 0 0 0 0 0 0 0 0 0 0 0 0 0 0 0 0 0 0 0 0 0 0 0 0
Wind_Speed
9 11 17 20 19 10 8 8 9 7 6 8 11 13 13 9 7 9 9 9 11 13 13 10 11 11 10 11 13 16 17 16 14 12 12 12 12 11 10 9 10 12 11 11
10 20 20 13 13 13 11 10 9 5 5 7 7 11 11 10 10 11 11 12 12 11 9 9 9 10 12 14 16 17 18 17 17 15 14 11 9 7 7 7 9 11 12 12
22 14 14 14 15 18 16 16 12 6 1 2 3 8 9 8 8 9 10 11 10 13 13 11 10 11 12 14 16 16 18 19 19 16 9 7 5 4 6 9 10 12 13 12
19 15 14 17 18 18 20 14 10 8 5 5 4 7 9 8 8 9 12 11 12 12 12 11 11 10 12 15 14 15 17 17 17 16 14 16 13 12 13 10 10 10 12 12
13 13 17 21 20 17 9 10 11 10 8 7 5 6 9 5 9 11 13 13 13 13 12 12 11 12 12 11 11 13 14 15 15 17 18 18 14 11 7 6 10 10 10 11
13 9 13 14 12 13 6 6 5 5 6 14 15 10 10 8 12 9 10 12 12 12 11 10 9 8 7 7 8 10 12 13 15 17 18 18 16 12 11 10 12 10 7 8
12 12 9 8 10 12 11 9 7 8 10 12 10 11 13 10 10 12 13 12 10 9 9 9 8 8 8 8 9 9 12 13 14 17 17 18 17 16 16 14 13 11 8 8
9 11 12 10 13 12 16 15 10 9 8 5 7 13 11 10 9 9 10 9 8 8 8 9 9 8 8 8 9 10 12 12 13 16 16 14 14 11 10 12 11 12 10 10
7 9 7 10 8 12 14 14 7 3 3 4 7 7 10 6 7 9 10 9 10 9 9 8 7 7 7 8 9 10 11 11 12 14 13 13 13 12 11 11 10 9 8 8
4 6 6 8 6 10 9 10 7 8 8 7 6 7 8 7 11 11 10 11 11 9 8 7 7 7 6 6 6 7 8 10 10 11 12 10 12 12 11 10 11 10 9 9
4 5 4 7 12 13 10 11 8 7 5 6 5 9 10 12 12 13 13 11 10 10 9 7 6 5 5 5 6 6 7 7 8 10 10 10 10 10 10 10 11 10 10 11
3 4 5 9 7 8 8 10 9 9 7 6 5 9 6 9 8 9 10 9 8 7 6 6 5 5 5 6 6 6 7 7 8 8 9 9 10 10 10 10 10 10 11 11
2 3 3 2 2 3 5 6 8 6 3 5 6 9 3 2 4 5 6 6 5 5 5 4 5 5 6 6 6 6 7 7 7 7 8 9 9 10 10 10 10 10 10 10
3 4 5 5 4 4 8 9 9 8 8 9 11 7 4 3 4 4 5 5 4 5 5 5 5 6 6 6 6 6 6 6 7 8 8 9 10 10 10 9 10 10 10 10
1 5 6 9 10 8 10 12 13 14 14 13 12 11 9 7 5 4 4 4 4 5 6 7 7 6 6 6 6 6 7 7 7 8 8 8 8 8 8 9 9 9 9 9
2 5 6 9 10 9 11 14 17 19 18 16 11 14 9 6 3 3 4 5 6 7 8 7 7 7 8 8 8 7 7 7 8 8 8 7 8 8 8 8 8 8 8 8
3 3 3 7 7 6 11 14 17 17 17 18 20 15 4 6 7 7 6 6 7 8 8 8 8 9 9 9 9 9 8 8 8 8 8 8 8 8 8 8 8 8 8 8
7 5 4 5 4 10 8 4 8 13 14 13 10 6 9 10 9 7 7 8 8 7 7 8 8 7 6 6 7 7 8 9 9 8 8 8 9 9 8 8 8 8 7 7
12 8 5 3 5 8 7 3 7 10 12 7 8 6 5 4 4 6 6 7 9 9 8 8 7 7 7 8 9 10 9 9 9 9 9 9 9 10 9 9 8 7 7 6
10 9 6 5 5 7 5 5 4 6 9 3 5 6 4 3 7 10 6 6 7 6 5 4 4 5 7 8 10 11 10 10 9 9 9 8 9 10 10 9 7 6 6 6
6 7 9 7 6 8 5 6 2 6 6 5 5 6 6 10 11 7 5 7 7 6 5 5 6 6 7 10 11 11 10 9 8 8 8 8 8 9 9 8 6 8 7 7
6 5 6 6 8 9 3 3 1 4 7 5 5 6 8 10 9 5 5 6 6 4 4 5 6 6 6 9 11 11 9 8 9 10 10 9 8 8 8 9 8 8 9 8
6 6 4 7 7 4 2 3 4 4 6 7 7 8 8 7 7 6 5 6 5 6 5 5 7 8 6 7 10 12 9 10 11 11 10 9 9 8 8 9 9 7 7 6
5 3 4 6 9 8 7 6 5 6 8 9 9 9 7 7 6 6 4 4 4 5 6 6 9 10 7 6 7 10 11 12 13 13 10 9 10 9 7 6 6 7 6 6
6 4 5 8 8 7 7 4 6 9 11 12 11 8 7 5 5 4 4 4 5 4 5 7 9 10 10 9 10 10 11 13 14 12 10 9 9 9 8 6 5 5 4 6
8 8 8 9 6 6 9 9 8 10 13 12 11 10 7 4 5 3 3 3 4 6 7 8 9 11 11 11 11 10 10 13 15 12 10 8 8 8 8 8 8 10 8 10
Wind_Direction
199 204 212 209 207 211 196 197 214 217 198 185 218 235 245 240 217 228 231 226 224 227 232 225 214 207 198 194 193 194 195 195 188 190 192 194 198 195 194 193 189 187 186 184
212 224 221 211 207 211 214 219 224 236 207 199 230 245 246 237 222 219 223 224 224 227 234 228 217 206 200 199 198 198 198 194 191 195 196 197 191 190 190 187 190 190 188 186
219 226 209 207 209 212 217 217 215 213 194 223 249 274 253 248 226 229 228 225 223 220 225 225 217 211 204 204 202 200 200 196 195 192 179 162 149 149 177 192 195 195 192 189
227 228 212 211 214 207 226 216 209 213 217 240 204 263 260 242 245 235 233 230 229 227 224 222 215 212 209 210 204 202 199 196 193 184 181 181 187 193 196 190 190 188 190 190
223 205 210 216 215 204 220 189 203 216 223 246 225 242 265 237 242 242 235 231 231 229 224 224 217 213 212 207 200 200 196 194 188 186 188 190 196 197 178 166 176 184 189 190
241 229 213 218 216 203 175 150 186 210 212 238 225 221 260 218 218 229 231 230 230 229 226 227 223 210 206 195 191 189 189 191 187 188 189 193 194 183 170 174 182 185 184 187
234 233 223 198 193 198 186 168 188 200 211 234 200 211 243 220 214 216 224 230 229 224 223 222 214 204 197 187 185 183 185 189 187 188 192 195 194 187 185 183 184 182 181 187
217 225 205 200 198 192 196 187 195 196 201 224 183 219 243 225 219 223 231 234 232 225 219 214 208 201 195 190 184 181 185 188 186 189 193 193 190 189 189 186 183 186 190 190
226 237 202 206 195 178 187 199 192 178 181 197 221 253 287 246 238 232 233 231 231 226 217 212 206 197 191 186 185 184 183 184 187 190 189 188 188 188 187 183 181 185 185 178
245 250 228 201 187 198 188 171 168 192 187 217 232 232 232 211 216 223 223 222 225 219 213 209 204 196 189 184 178 174 179 184 185 186 186 187 189 188 183 178 181 181 177 172
257 250 238 192 196 192 176 182 179 184 198 186 219 247 217 204 204 209 215 216 215 211 206 203 198 188 174 164 163 165 170 172 177 181 181 180 182 180 177 179 182 178 173 172
274 257 250 225 219 196 184 181 175 189 203 194 202 257 239 212 213 207 213 215 213 208 200 191 183 167 163 166 165 167 168 172 177 176 175 177 174 172 176 178 177 173 173 176
301 273 277 250 195 181 204 187 192 186 152 179 199 252 279 212 226 226 220 217 209 201 190 177 172 175 177 174 171 169 169 170 166 163 165 168 169 172 176 176 172 170 171 171
287 243 234 242 258 232 234 225 208 191 204 214 221 224 247 227 226 227 219 210 199 198 189 183 186 189 183 177 173 167 166 162 158 159 163 169 173 175 174 169 167 168 168 169
295 249 251 270 276 247 246 233 217 215 215 218 225 220 223 222 220 223 209 189 183 197 200 199 197 192 182 175 171 165 162 159 157 159 166 172 168 163 159 160 162 162 164 168
259 263 263 269 265 259 255 234 222 223 223 229 230 237 230 227 203 199 194 186 198 209 212 206 199 191 188 183 175 167 164 162 158 162 166 159 153 153 156 157 154 154 157 158
258 254 274 264 272 276 247 219 211 216 221 219 228 231 200 226 220 215 211 204 209 213 210 204 201 199 195 186 173 171 164 155 157 159 157 154 153 154 155 151 150 155 157 153
221 229 241 273 258 235 238 209 214 225 230 226 234 219 195 214 226 222 203 201 215 216 212 211 205 199 189 164 154 148 146 152 156 155 155 154 152 151 148 148 152 152 149 153
208 210 220 232 247 269 278 244 208 214 233 226 234 241 233 240 232 251 229 216 219 215 209 208 199 186 164 156 151 144 147 150 154 159 159 158 153 149 148 151 152 147 145 145
201 206 220 222 240 244 273 299 271 198 242 242 234 240 234 167 217 241 237 234 241 234 216 199 167 153 155 155 147 145 152 156 165 164 158 153 150 149 152 151 144 136 138 138
185 202 215 223 244 265 296 311 103 172 260 297 239 241 220 212 230 251 234 225 225 224 209 174 155 161 164 152 147 147 152 164 158 142 137 138 141 142 140 133 130 131 126 123
195 200 205 202 224 246 336 32 126 288 304 298 267 248 242 246 252 249 229 217 206 198 181 160 152 152 147 150 147 146 154 145 131 129 128 129 129 128 128 124 122 125 128 125
211 202 208 218 236 272 265 253 277 292 307 312 305 290 266 257 255 250 241 219 200 183 172 156 146 137 137 149 148 144 144 135 130 125 124 122 118 116 125 129 129 126 127 128
252 220 224 249 260 275 285 289 297 311 308 308 306 299 282 262 254 246 237 213 188 170 158 147 140 138 139 141 135 132 134 133 127 125 124 123 120 115 111 114 124 128 133 132
237 228 238 251 268 288 278 275 301 311 313 314 314 303 284 264 261 241 228 201 180 163 150 150 149 143 139 133 125 128 133 130 124 122 123 120 118 119 111 102 105 119 129 145
216 213 223 243 241 249 275 286 296 304 303 303 309 309 303 270 252 250 220 187 167 154 144 140 136 134 133 130 127 130 133 131 128 126 126 124 122 119 117 111 91 79 96 105